Weather History for North Adams, MA

Change the Weather History Date:

Saturday, January 19, 2013

  Actual Average Record
Temperature  
Mean Temperature 32 °F -  
Max Temperature 42 °F 25 °F 42 °F (2013)
Min Temperature 23 °F 9 °F -8 °F (2005)
Degree Days  
Heating Degree Days 32    
Moisture  
Dew Point 14 °F    
Average Humidity 45    
Maximum Humidity 55    
Minimum Humidity 35    
Precipitation  
Precipitation 0.00 in - - ()
Sea Level Pressure  
Sea Level Pressure 30.05 in    
Wind  
Wind Speed 4 mph (South)    
Max Wind Speed 15 mph    
Max Gust Speed 28 mph    
Visibility 10 miles    
Events      
Averages and records for this station are not official NWS values.
T = Trace of Precipitation, MM = Missing Value Source: NWS Daily Summary

Daily Weather History Graph

Daily Weather History Graph

Search for Another Location

Airport:

Trip Planner

Search our weather history database for the weather conditions in past years. The results will help you decide how hot, cold, wet, or windy it might be!

Date:

Astronomy

Jan. 19, 2013 Rise Set
Actual Time 7:17 AM EST 4:49 PM EST
Civil Twilight 6:46 AM EST 5:20 PM EST
Nautical Twilight 6:12 AM EST 5:55 PM EST
Astronomical Twilight 5:38 AM EST 6:28 PM EST
Moon 11:15 AM EST (1/19) 12:47 AM EST (1/19)
Length of Visible Light 10h 33m
Length of Day
9h 31m
First Quarter, 57% of the Moon is Illuminated
Jan 19
First Quarter
Jan 26
Full
Feb 3
Last Quarter
Feb 10
New
Feb 17
First Quarter

Hourly Weather History & Observations

Time (EST) Temp. Windchill Dew Point Humidity Pressure Visibility Wind Dir Wind Speed Gust Speed Precip Events Conditions
12:52 AM 23.0 °F - 3.9 °F 44% 30.27 in 10.0 mi Calm Calm - N/A   Overcast
2:52 AM 24.1 °F 19.7 °F 5.0 °F 44% 30.24 in 10.0 mi Variable 3.5 mph - N/A   Overcast
3:52 AM 25.0 °F 15.5 °F 6.1 °F 45% 30.21 in 10.0 mi SSE 9.2 mph - N/A   Overcast
4:52 AM 26.1 °F 20.5 °F 8.1 °F 47% 30.17 in 10.0 mi Variable 4.6 mph - N/A   Overcast
5:52 AM 28.0 °F 21.7 °F 8.1 °F 43% 30.17 in 10.0 mi Variable 5.8 mph - N/A   Overcast
6:52 AM 30.0 °F 24.1 °F 10.0 °F 43% 30.15 in 10.0 mi SW 5.8 mph - N/A   Overcast
7:52 AM 28.0 °F - 12.0 °F 51% 30.15 in 10.0 mi Calm Calm - N/A   Overcast
8:52 AM 28.9 °F - 12.9 °F 51% 30.14 in 10.0 mi Calm Calm - N/A   Clear
9:52 AM 30.9 °F - 12.9 °F 47% 30.14 in 10.0 mi Calm Calm - N/A   Clear
10:52 AM 36.0 °F 26.7 °F 14.0 °F 41% 30.10 in 10.0 mi SSW 15.0 mph 27.6 mph N/A   Clear
11:52 AM 39.9 °F 36.7 °F 14.0 °F 35% 30.05 in 10.0 mi Variable 4.6 mph - N/A   Partly Cloudy
12:52 PM 41.0 °F 36.4 °F 15.1 °F 35% 30.02 in 10.0 mi WSW 6.9 mph - N/A   Mostly Cloudy
1:52 PM 41.0 °F 36.4 °F 15.1 °F 35% 30.01 in 10.0 mi SSW 6.9 mph - N/A   Mostly Cloudy
2:52 PM 42.1 °F 37.7 °F 17.1 °F 37% 29.99 in 10.0 mi Variable 6.9 mph - N/A   Mostly Cloudy
4:52 PM 37.9 °F 34.4 °F 19.9 °F 48% 29.97 in 10.0 mi ESE 4.6 mph - N/A   Mostly Cloudy
5:52 PM 37.9 °F - 19.9 °F 48% 29.96 in 10.0 mi Calm Calm - N/A   Mostly Cloudy
6:52 PM 36.0 °F - 21.0 °F 55% 29.96 in 10.0 mi Calm Calm - N/A   Clear
7:52 PM 36.0 °F 33.3 °F 19.9 °F 52% 29.94 in 10.0 mi Variable 3.5 mph - N/A   Partly Cloudy
8:52 PM 36.0 °F 32.1 °F 19.0 °F 50% 29.93 in 10.0 mi Variable 4.6 mph - N/A   Mostly Cloudy
9:52 PM 37.9 °F 35.5 °F 19.9 °F 48% 29.87 in 10.0 mi Variable 3.5 mph - N/A   Overcast
10:52 PM 41.0 °F 36.4 °F 19.9 °F 43% 29.84 in 10.0 mi East 6.9 mph - N/A   Overcast
11:52 PM 39.9 °F 35.1 °F 21.0 °F 47% 29.81 in 10.0 mi SE 6.9 mph - N/A   Overcast